Home   Weather   Fort Bragg   Past weeks
Flag for USA

Past Weather in Fort Bragg, California, USA — Yesterday and Last 2 Weeks

Now
51 °F

Sunny.


Feels Like: 51 °F
Forecast: 62 / 47 °F
Wind: No wind

Location: Ukiah Municipal

Current Time: Oct 16, 2019 at 10:30:11 am

Latest Report: Oct 16, 2019 at 9:56 am


Visibility: 10 mi

Pressure: 30.01 "Hg

Humidity: 59%

Dew Point: 37 °F

Location of Fort BraggLocation

Past Weather in Fort Bragg — Graph

°F

Fort Bragg Temperature Yesterday

Maximum temperature yesterday: 82 °F (at 2:56 pm)
Minimum temperature yesterday: 40 °F (at 5:56 am)
Average temperature yesterday: 58 °F

High & Low Weather Summary for the Past Weeks

 TemperatureHumidityPressure
High91 °F (Oct 7, 3:56 pm)86% (Oct 2, 6:56 am)30.18 "Hg (Oct 2, 6:56 am)
Low33 °F (Oct 10, 7:56 am)2% (Oct 10, 3:56 pm)29.78 "Hg (Oct 13, 4:56 pm)
Average59 °F45%29.98 "Hg
* Reported Oct 1 8:56 am — Oct 16 8:56 am, Fort Bragg. Weather by CustomWeather, © 2019

Note: Actual official high and low records may vary slightly from our data, if they occured in-between our weather recording intervals... More about our weather records

Advertising

Fort Bragg Weather History for the Previous 24 Hours

Scroll right to see more
 ConditionsComfort  
Time TempWeatherWind HumidityBarometerVisibility
8:56 am
Wed, Oct 16
46 °FSunny.No wind68%30.02 "Hg10 mi
7:56 am42 °FSunny.No wind76%30.02 "Hg10 mi
6:56 am40 °FClear.No wind80%30.02 "Hg10 mi
5:56 am40 °FClear.No wind83%30.01 "Hg10 mi
4:56 am41 °FClear.No wind76%30.01 "Hg10 mi
3:56 am42 °FClear.No wind79%30.01 "Hg10 mi
2:56 am43 °FClear.No wind76%30.03 "Hg10 mi
1:56 am45 °FClear.No wind76%30.03 "Hg10 mi
12:56 am47 °FClear.No wind71%30.02 "Hg10 mi
11:56 pm
Tue, Oct 15
50 °FClear.No wind66%30.03 "Hg10 mi
10:56 pm51 °FClear.No wind66%30.03 "Hg10 mi
9:56 pm56 °FClear.No wind58%30.03 "Hg10 mi
8:56 pm59 °FClear.No wind51%30.02 "Hg10 mi
7:56 pm63 °FClear.6 mph47%30.03 "Hg10 mi
6:56 pm68 °FClear.7 mph39%30.00 "Hg10 mi
5:56 pm75 °FSunny.7 mph13%29.98 "Hg10 mi
4:56 pm80 °FSunny.12 mph10%29.97 "Hg10 mi
3:56 pm82 °FSunny.12 mph9%29.97 "Hg10 mi
2:56 pm82 °FSunny.8 mph10%29.98 "Hg10 mi
1:56 pm79 °FSunny.12 mph12%30.01 "Hg10 mi
12:56 pm74 °FSunny.5 mph21%30.05 "Hg10 mi
11:56 am68 °FSunny.No wind26%30.08 "Hg10 mi
10:56 am61 °FSunny.No wind35%30.09 "Hg10 mi
Weather by CustomWeather, © 2019

See weather overview